• In Deutschland
  • Länderverzeichnis
  • Für 7 Tage
  • Wassertemperatur
  • Satellitenkarten
  • Wetterkarte
  • Widgets
  • user-avatar
    Anmelden

    Stündliche Wetter Offenbach am Main

    Heute, 21 Februar, Mittwoch

    Zeit Temperatur Niederschläge Wind Luftdruck Luftfeuchtigkeit
    00:00 -2°C° 0 mm 2 m/S 755 mmHg 77%
    01:00 -2°C° 0 mm 2 m/S 755 mmHg 78%
    02:00 -2°C° 0 mm 2 m/S 755 mmHg 78%
    03:00 -2°C° 0 mm 2 m/S 755 mmHg 79%
    04:00 -3°C° 0 mm 2 m/S 755 mmHg 80%
    05:00 -3°C° 0 mm 2 m/S 755 mmHg 79%
    06:00 -3°C° 0 mm 2 m/S 756 mmHg 79%
    07:00 -2°C° 0 mm 3 m/S 756 mmHg 81%
    08:00 -2°C° 0 mm 3 m/S 756 mmHg 76%
    09:00 -1°C° 0 mm 3 m/S 756 mmHg 70%
    10:00 -1°C° 0 mm 4 m/S 756 mmHg 64%
    11:00 0°C° 0 mm 4 m/S 756 mmHg 59%
    12:00 +1°C° 0 mm 4 m/S 756 mmHg 54%
    13:00 +3°C° 0 mm 4 m/S 756 mmHg 51%
    14:00 +3°C° 0 mm 4 m/S 756 mmHg 51%
    15:00 +3°C° 0 mm 4 m/S 755 mmHg 52%
    16:00 +3°C° 0 mm 4 m/S 755 mmHg 52%
    17:00 +1°C° 0 mm 4 m/S 755 mmHg 57%
    18:00 0°C° 0 mm 4 m/S 755 mmHg 62%
    19:00 -2°C° 0 mm 4 m/S 755 mmHg 67%
    20:00 -2°C° 0 mm 4 m/S 756 mmHg 68%
    21:00 -2°C° 0 mm 4 m/S 756 mmHg 69%
    22:00 -3°C° 0 mm 4 m/S 756 mmHg 69%
    23:00 -3°C° 0 mm 4 m/S 756 mmHg 70%

    Morgen, 22 Februar, Donnerstag

    Zeit Temperatur Niederschläge Wind Luftdruck Luftfeuchtigkeit
    00:00 -3°C° 0 mm 4 m/S 756 mmHg 70%
    01:00 -3°C° 0 mm 4 m/S 756 mmHg 70%
    02:00 -3°C° 0 mm 4 m/S 756 mmHg 69%
    03:00 -3°C° 0 mm 4 m/S 755 mmHg 68%
    04:00 -3°C° 0 mm 4 m/S 755 mmHg 66%
    05:00 -3°C° 0 mm 4 m/S 755 mmHg 64%
    06:00 -3°C° 0 mm 4 m/S 755 mmHg 61%
    07:00 -3°C° 0 mm 4 m/S 755 mmHg 58%
    08:00 -4°C° 0 mm 5 m/S 755 mmHg 53%
    09:00 -2°C° 0 mm 5 m/S 755 mmHg 49%
    10:00 -2°C° 0 mm 6 m/S 756 mmHg 44%
    11:00 -2°C° 0 mm 6 m/S 755 mmHg 42%
    12:00 -1°C° 0 mm 6 m/S 755 mmHg 41%
    13:00 +1°C° 0 mm 6 m/S 755 mmHg 39%
    14:00 +1°C° 0 mm 6 m/S 755 mmHg 40%
    15:00 +1°C° 0 mm 6 m/S 755 mmHg 41%
    16:00 +1°C° 0 mm 6 m/S 754 mmHg 42%
    17:00 0°C° 0 mm 5 m/S 754 mmHg 47%
    18:00 -1°C° 0 mm 5 m/S 755 mmHg 51%
    19:00 -2°C° 0 mm 5 m/S 755 mmHg 55%
    20:00 -4°C° 0 mm 5 m/S 755 mmHg 56%
    21:00 -4°C° 0 mm 5 m/S 755 mmHg 58%
    22:00 -4°C° 0 mm 5 m/S 755 mmHg 59%
    23:00 -4°C° 0 mm 5 m/S 755 mmHg 59%

    übermorgen, 23 Februar, Freitag

    Zeit Temperatur Niederschläge Wind Luftdruck Luftfeuchtigkeit
    00:00 -4°C° 0 mm 5 m/S 755 mmHg 59%
    01:00 -5°C° 0 mm 5 m/S 755 mmHg 59%
    02:00 -5°C° 0 mm 5 m/S 754 mmHg 58%
    03:00 -4°C° 0 mm 4 m/S 754 mmHg 58%
    04:00 -4°C° 0 mm 4 m/S 754 mmHg 58%
    05:00 -5°C° 0 mm 5 m/S 754 mmHg 57%
    06:00 -5°C° 0 mm 5 m/S 754 mmHg 57%
    07:00 -6°C° 0 mm 5 m/S 754 mmHg 56%
    08:00 -5°C° 0 mm 5 m/S 754 mmHg 51%
    09:00 -4°C° 0 mm 5 m/S 755 mmHg 47%
    10:00 -4°C° 0 mm 5 m/S 755 mmHg 42%
    11:00 -1°C° 0 mm 5 m/S 754 mmHg 38%
    12:00 0°C° 0 mm 5 m/S 754 mmHg 35%
    13:00 +1°C° 0 mm 6 m/S 754 mmHg 31%
    14:00 +1°C° 0 mm 6 m/S 754 mmHg 32%
    15:00 +1°C° 0 mm 6 m/S 754 mmHg 32%
    16:00 +1°C° 0 mm 6 m/S 753 mmHg 33%
    17:00 0°C° 0 mm 5 m/S 754 mmHg 36%
    18:00 -1°C° 0 mm 5 m/S 754 mmHg 39%
    19:00 -2°C° 0 mm 5 m/S 754 mmHg 42%
    20:00 -2°C° 0 mm 5 m/S 754 mmHg 43%
    21:00 -4°C° 0 mm 5 m/S 754 mmHg 44%
    22:00 -4°C° 0 mm 5 m/S 754 mmHg 45%
    23:00 -4°C° 0 mm 5 m/S 754 mmHg 46%

    24 Februar, Samstag

    Zeit Temperatur Niederschläge Wind Luftdruck Luftfeuchtigkeit
    00:00 -4°C° 0 mm 5 m/S 754 mmHg 46%
    01:00 -4°C° 0 mm 5 m/S 754 mmHg 46%
    02:00 -4°C° 0 mm 5 m/S 754 mmHg 45%
    03:00 -4°C° 0 mm 5 m/S 754 mmHg 44%
    04:00 -5°C° 0 mm 5 m/S 754 mmHg 43%
    05:00 -5°C° 0 mm 5 m/S 755 mmHg 41%
    06:00 -5°C° 0 mm 5 m/S 755 mmHg 39%
    07:00 -5°C° 0 mm 5 m/S 755 mmHg 36%
    08:00 -4°C° 0 mm 5 m/S 755 mmHg 34%
    09:00 -3°C° 0 mm 6 m/S 755 mmHg 31%
    10:00 -2°C° 0 mm 6 m/S 756 mmHg 28%
    11:00 -1°C° 0 mm 7 m/S 756 mmHg 28%
    12:00 0°C° 0 mm 7 m/S 755 mmHg 28%
    13:00 +2°C° 0 mm 7 m/S 755 mmHg 28%
    14:00 +2°C° 0 mm 7 m/S 755 mmHg 31%
    15:00 +2°C° 0 mm 7 m/S 755 mmHg 34%
    16:00 +2°C° 0 mm 7 m/S 755 mmHg 37%
    17:00 0°C° 0 mm 7 m/S 755 mmHg 38%
    18:00 -2°C° 0 mm 7 m/S 756 mmHg 39%
    19:00 -3°C° 0 mm 6 m/S 756 mmHg 40%
    20:00 -4°C° 0 mm 6 m/S 757 mmHg 38%
    21:00 -4°C° 0 mm 6 m/S 757 mmHg 37%
    22:00 -5°C° 0 mm 6 m/S 757 mmHg 35%
    23:00 -5°C° 0 mm 6 m/S 757 mmHg 35%

    25 Februar, Sonntag

    Zeit Temperatur Niederschläge Wind Luftdruck Luftfeuchtigkeit
    00:00 -5°C° 0 mm 6 m/S 757 mmHg 34%
    01:00 -6°C° 0 mm 6 m/S 758 mmHg 33%
    02:00 -6°C° 0 mm 6 m/S 758 mmHg 33%
    03:00 -6°C° 0 mm 6 m/S 758 mmHg 32%
    04:00 -8°C° 0 mm 6 m/S 758 mmHg 32%
    05:00 -8°C° 0 mm 6 m/S 758 mmHg 33%
    06:00 -8°C° 0 mm 6 m/S 758 mmHg 34%
    07:00 -9°C° 0 mm 6 m/S 758 mmHg 35%
    08:00 -8°C° 0 mm 6 m/S 759 mmHg 34%
    09:00 -8°C° 0 mm 6 m/S 759 mmHg 33%
    10:00 -6°C° 0 mm 6 m/S 759 mmHg 32%
    11:00 -6°C° 0 mm 6 m/S 759 mmHg 30%
    12:00 -5°C° 0 mm 6 m/S 759 mmHg 28%
    13:00 -4°C° 0 mm 6 m/S 759 mmHg 26%
    14:00 -4°C° 0 mm 6 m/S 758 mmHg 26%
    15:00 -4°C° 0 mm 6 m/S 758 mmHg 26%
    16:00 -4°C° 0 mm 6 m/S 758 mmHg 26%
    17:00 -5°C° 0 mm 6 m/S 758 mmHg 28%
    18:00 -5°C° 0 mm 5 m/S 758 mmHg 30%
    19:00 -6°C° 0 mm 5 m/S 758 mmHg 32%
    20:00 -7°C° 0 mm 5 m/S 758 mmHg 33%
    21:00 -7°C° 0 mm 5 m/S 759 mmHg 34%
    22:00 -7°C° 0 mm 5 m/S 759 mmHg 35%
    23:00 -8°C° 0 mm 5 m/S 759 mmHg 36%

    26 Februar, Montag

    Zeit Temperatur Niederschläge Wind Luftdruck Luftfeuchtigkeit
    00:00 -8°C° 0 mm 5 m/S 759 mmHg 37%
    01:00 -8°C° 0 mm 5 m/S 759 mmHg 37%
    02:00 -8°C° 0 mm 5 m/S 758 mmHg 38%
    03:00 -10°C° 0 mm 5 m/S 758 mmHg 38%
    04:00 -9°C° 0 mm 4 m/S 758 mmHg 39%
    05:00 -9°C° 0 mm 4 m/S 758 mmHg 39%
    06:00 -10°C° 0 mm 4 m/S 758 mmHg 40%
    07:00 -10°C° 0 mm 4 m/S 758 mmHg 41%
    08:00 -10°C° 0 mm 5 m/S 758 mmHg 39%
    09:00 -10°C° 0 mm 5 m/S 758 mmHg 37%
    10:00 -8°C° 0 mm 5 m/S 758 mmHg 35%
    11:00 -8°C° 0 mm 5 m/S 758 mmHg 32%
    12:00 -7°C° 0 mm 5 m/S 758 mmHg 30%
    13:00 -6°C° 0 mm 5 m/S 757 mmHg 27%
    14:00 -6°C° 0 mm 5 m/S 757 mmHg 27%
    15:00 -6°C° 0 mm 5 m/S 756 mmHg 27%
    16:00 -5°C° 0 mm 5 m/S 756 mmHg 27%
    17:00 -6°C° 0 mm 5 m/S 756 mmHg 30%
    18:00 -7°C° 0 mm 4 m/S 756 mmHg 32%
    19:00 -8°C° 0 mm 4 m/S 756 mmHg 35%
    20:00 -8°C° 0 mm 4 m/S 756 mmHg 36%
    21:00 -8°C° 0 mm 4 m/S 756 mmHg 37%
    22:00 -8°C° 0 mm 4 m/S 756 mmHg 38%
    23:00 -9°C° 0 mm 4 m/S 756 mmHg 39%
    Mehr zeigen